OE6NPC-WX Weather Reports


Display with metric or nautical units.
time (UTC)temp
F
wind
direction
speed
MPH
gust
MPH
rain 1hr
in
rain 24hr
in
rain mn
in
humidity
%
barometer
mb
20260906002652 62 0.0 0.0 0.00 0.00 0.00 60 972.4
20260906001647 62 0.0 0.0 0.00 0.00 0.00 62 972.3
20260906000641 61 0.0 0.0 0.00 0.00 0.00 63 972.3
20260905235639 61 0.0 0.0 0.00 0.00 0.00 63 972.4
20260905234635 60 0.0 0.0 0.00 0.00 0.00 67 972.2
20260905233631 60 0.0 0.0 0.00 0.00 0.00 67 972.0
20260905232626 60 0.0 0.0 0.00 0.00 0.00 67 972.0
20260905231621 60 0.0 0.0 0.00 0.00 0.00 67 972.0
20260905230618 60 0.0 0.0 0.00 0.00 0.00 68 972.0
20260905225614 61 0.0 0.0 0.00 0.00 0.00 66 972.0
20260905224610 61 0.0 0.0 0.00 0.00 0.00 64 971.8
20260905223605 61 0.0 0.0 0.00 0.00 0.00 65 971.9
20260905222601 61 0.0 0.0 0.00 0.00 0.00 66 971.9
20260905221557 62 0.0 0.0 0.00 0.00 0.00 65 971.8
20260905220553 62 0.0 0.0 0.00 0.00 0.00 66 971.8
20260905215549 62 0.0 0.0 0.00 0.00 0.00 66 971.7
20260905214545 62 0.0 0.0 0.00 0.00 0.00 65 971.8
20260905213540 62 0.0 0.0 0.00 0.00 0.00 67 971.7
20260905212537 62 0.0 0.0 0.00 0.00 0.00 67 971.6
20260905211532 63 0.0 0.0 0.00 0.00 0.00 66 971.7
20260905210529 63 0.0 0.0 0.00 0.00 0.00 66 971.6
20260905205524 63 0.0 0.0 0.00 0.00 0.00 65 971.5
20260905204519 64 0.0 0.0 0.00 0.00 0.00 66 971.5
20260905203515 64 0.0 0.0 0.00 0.00 0.00 65 971.5
20260905202513 64 0.0 0.0 0.00 0.00 0.00 65 971.4
20260905201508 65 0.0 0.0 0.00 0.00 0.00 61 971.3
20260905200504 65 0.0 0.0 0.00 0.00 0.00 62 971.1
20260905195459 65 0.0 0.0 0.00 0.00 0.00 63 971.1
20260905194454 66 0.0 0.0 0.00 0.00 0.00 63 970.9
20260905193451 66 0.0 0.0 0.00 0.00 0.00 63 970.8
20260905192447 67 0.0 0.0 0.00 0.00 0.00 64 970.8
20260905191443 68 0.0 0.0 0.00 0.00 0.00 65 970.7
20260905190437 68 0.0 0.0 0.00 0.00 0.00 64 970.6
20260905185435 69 0.0 0.0 0.00 0.00 0.00 64 970.6
20260905184429 69 0.0 0.0 0.00 0.00 0.00 66 970.4
20260905183426 69 0.0 0.0 0.00 0.00 0.00 65 970.3
20260905181417 71 0.0 0.0 0.00 0.00 0.00 65 969.9
20260905180413 71 0.0 0.0 0.00 0.00 0.00 60 969.6
20260905175408 72 0.0 0.0 0.00 0.00 0.00 48 969.5
20260905174403 72 0.0 0.0 0.00 0.00 0.00 46 969.3
20260905173401 73 0.0 0.0 0.00 0.00 0.00 45 969.0
20260905172356 73 0.0 0.0 0.00 0.00 0.00 43 969.0
20260905171352 74 0.0 0.0 0.00 0.00 0.00 43 968.9
20260905170348 74 0.0 0.0 0.00 0.00 0.00 43 968.7
20260905165344 74 0.0 0.0 0.00 0.00 0.00 43 968.7
20260905164338 75 0.0 0.0 0.00 0.00 0.00 42 968.5
20260905163332 75 0.0 0.0 0.00 0.00 0.00 41 968.4
20260905162329 75 0.0 0.0 0.00 0.00 0.00 42 968.1
20260905161325 75 0.0 0.0 0.00 0.00 0.00 42 968.2
20260905160320 75 0.0 0.0 0.00 0.00 0.00 43 968.2
20260905155315 75 0.0 0.0 0.00 0.00 0.00 41 968.2
20260905154311 75 0.0 0.0 0.00 0.00 0.00 43 968.1
20260905153307 75 0.0 0.0 0.00 0.00 0.00 46 968.0
20260905152306 76 0.0 0.0 0.00 0.00 0.00 54 968.1
20260905151258 76 0.0 0.0 0.00 0.00 0.00 54 968.0
20260905150251 76 0.0 0.0 0.00 0.00 0.00 53 967.9
20260905145249 77 0.0 0.0 0.00 0.00 0.00 53 968.0
20260905144245 77 0.0 0.0 0.00 0.00 0.00 51 968.1
20260905143240 77 0.0 0.0 0.00 0.00 0.00 51 968.0
20260905142235 77 0.0 0.0 0.00 0.00 0.00 50 968.0
20260905141232 77 0.0 0.0 0.00 0.00 0.00 51 968.1
20260905140228 77 0.0 0.0 0.00 0.00 0.00 51 968.1
20260905135223 77 0.0 0.0 0.00 0.00 0.00 51 968.2
20260905134218 77 0.0 0.0 0.00 0.00 0.00 50 968.3
20260905133213 77 0.0 0.0 0.00 0.00 0.00 51 968.1
20260905132209 77 0.0 0.0 0.00 0.00 0.00 51 968.3
20260905131204 77 0.0 0.0 0.00 0.00 0.00 50 968.2
20260905130200 77 0.0 0.0 0.00 0.00 0.00 50 968.1
20260905125154 77 0.0 0.0 0.00 0.00 0.00 49 968.3
20260905124150 77 0.0 0.0 0.00 0.00 0.00 48 968.2
20260905123146 77 0.0 0.0 0.00 0.00 0.00 46 968.3
20260905122142 76 0.0 0.0 0.00 0.00 0.00 48 968.3
20260905121138 76 0.0 0.0 0.00 0.00 0.00 47 968.4
20260905115129 76 0.0 0.0 0.00 0.00 0.00 48 968.4
20260905114125 76 0.0 0.0 0.00 0.00 0.00 47 968.6
20260905113121 75 0.0 0.0 0.00 0.00 0.00 47 968.6
20260905112117 75 0.0 0.0 0.00 0.00 0.00 47 968.4
20260905111113 76 0.0 0.0 0.00 0.00 0.00 47 968.5
20260905110108 76 0.0 0.0 0.00 0.00 0.00 47 968.4
20260905105105 76 0.0 0.0 0.00 0.00 0.00 46 968.4
20260905104100 76 0.0 0.0 0.00 0.00 0.00 47 968.3
20260905103056 76 0.0 0.0 0.00 0.00 0.00 48 968.4
20260905102052 75 0.0 0.0 0.00 0.00 0.00 48 968.2
20260905101047 75 0.0 0.0 0.00 0.00 0.00 48 968.2
20260905100044 75 0.0 0.0 0.00 0.00 0.00 48 968.3
20260905095039 75 0.0 0.0 0.00 0.00 0.00 47 968.4
20260905094035 75 0.0 0.0 0.00 0.00 0.00 48 968.4
20260905092028 75 0.0 0.0 0.00 0.00 0.00 48 968.2
20260905091024 74 0.0 0.0 0.00 0.00 0.00 50 967.9
20260905090019 73 0.0 0.0 0.00 0.00 0.00 51 967.9
20260905085014 73 0.0 0.0 0.00 0.00 0.00 51 967.9
20260905084011 72 0.0 0.0 0.00 0.00 0.00 51 968.0
20260905083006 71 0.0 0.0 0.00 0.00 0.00 52 967.8
20260905082003 70 0.0 0.0 0.00 0.00 0.00 54 968.0
20260905080958 69 0.0 0.0 0.00 0.00 0.00 53 968.1
20260905075954 70 0.0 0.0 0.00 0.00 0.00 53 968.2
20260905074949 69 0.0 0.0 0.00 0.00 0.00 52 967.9
20260905073945 69 0.0 0.0 0.00 0.00 0.00 52 967.8
20260905072940 69 0.0 0.0 0.00 0.00 0.00 52 967.8
20260905071937 69 0.0 0.0 0.00 0.00 0.00 54 967.5
20260905070933 69 0.0 0.0 0.00 0.00 0.00 53 967.3
20260905065928 70 0.0 0.0 0.00 0.00 0.00 55 967.1
20260905064924 70 0.0 0.0 0.00 0.00 0.00 58 967.1
20260905063921 69 0.0 0.0 0.00 0.00 0.00 59 966.6
20260905062917 69 0.0 0.0 0.00 0.00 0.00 60 966.6
20260905061912 70 0.0 0.0 0.00 0.00 0.00 59 966.9
20260905060909 70 0.0 0.0 0.00 0.00 0.00 60 966.4
20260905055904 71 0.0 0.0 0.00 0.00 0.00 64 966.1
20260905054859 71 0.0 0.0 0.00 0.00 0.00 67 965.8
20260905053855 70 0.0 0.0 0.00 0.00 0.00 73 965.4
20260905052852 70 0.0 0.0 0.00 0.00 0.00 75 965.0
20260905051848 68 0.0 0.0 0.00 0.00 0.00 76 964.8
20260905050842 67 0.0 0.0 0.00 0.00 0.00 81 964.5
20260905045839 67 0.0 0.0 0.00 0.00 0.00 79 964.4
20260905044835 67 0.0 0.0 0.00 0.00 0.00 78 964.2
20260905043831 67 0.0 0.0 0.00 0.00 0.00 78 964.1
20260905042826 67 0.0 0.0 0.00 0.00 0.00 77 964.1
20260905041821 67 0.0 0.0 0.00 0.00 0.00 77 964.0
20260905040816 66 0.0 0.0 0.00 0.00 0.00 78 964.0
20260905035812 66 0.0 0.0 0.00 0.00 0.00 78 963.8
20260905034809 66 0.0 0.0 0.00 0.00 0.00 77 963.7
20260905033804 66 0.0 0.0 0.00 0.00 0.00 75 963.6
20260905032800 66 0.0 0.0 0.00 0.00 0.00 76 963.4
20260905031755 66 0.0 0.0 0.00 0.00 0.00 77 963.3
20260905030749 66 0.0 0.0 0.00 0.00 0.00 77 963.1
20260905025746 66 0.0 0.0 0.00 0.00 0.00 76 963.0
20260905023736 66 0.0 0.0 0.00 0.00 0.00 77 963.1
20260905022732 67 0.0 0.0 0.00 0.00 0.00 78 963.2
20260905021728 67 0.0 0.0 0.00 0.00 0.00 77 963.0
20260905020723 67 0.0 0.0 0.00 0.00 0.00 77 963.0
20260905015719 67 0.0 0.0 0.00 0.00 0.00 77 963.0
20260905014715 67 0.0 0.0 0.00 0.00 0.00 77 963.2
20260905013710 67 0.0 0.0 0.00 0.00 0.00 77 963.4
20260905012705 67 0.0 0.0 0.00 0.00 0.00 77 963.4
20260905011700 67 0.0 0.0 0.00 0.00 0.00 75 963.5
20260905010655 67 0.0 0.0 0.00 0.00 0.00 76 963.4
20260905005651 67 0.0 0.0 0.00 0.00 0.00 77 963.4
20260905004646 67 0.0 0.0 0.00 0.00 0.00 76 963.4
20260905003642 67 0.0 0.0 0.00 0.00 0.00 75 963.3